| time (UTC) | temp F | wind direction | speed knots | gust knots | rain 1hr in | rain 24hr in | rain mn in | humidity % | barometer mb |
| 20260508033122 | 60 | 208 | 2.6 | 5.2 | 0.00 | 0.03 | 0.00 | 80 | 1012.6 |
| 20260508031559 | 59 | 261 | 0.9 | 3.5 | 0.00 | 0.03 | 0.00 | 83 | 1012.6 |
| 20260508030110 | 59 | 175 | 1.7 | 3.5 | 0.00 | 0.03 | 0.00 | 84 | 1012.7 |
| 20260508024620 | 59 | 176 | 2.6 | 3.5 | 0.00 | 0.03 | 0.00 | 84 | 1012.8 |
| 20260508023054 | 59 | 173 | 2.6 | 5.2 | 0.00 | 0.03 | 0.00 | 84 | 1012.9 |
| 20260508021552 | 60 | 178 | 1.7 | 3.5 | 0.00 | 0.03 | 0.00 | 85 | 1013.1 |
| 20260508020104 | 61 | 212 | 0.0 | 1.7 | 0.00 | 0.06 | 0.00 | 85 | 1013.3 |
| 20260508014554 | 64 | 85 | 0.0 | 2.6 | 0.00 | 0.06 | 0.00 | 82 | 1013.4 |
| 20260508013049 | 64 | 85 | 0.0 | 0.0 | 0.00 | 0.06 | 0.00 | 82 | 1013.5 |
| 20260508011545 | 64 | 85 | 0.0 | 0.0 | 0.00 | 0.06 | 0.00 | 82 | 1013.6 |
| 20260508010042 | 64 | 85 | 0.9 | 5.2 | 0.00 | 0.06 | 0.00 | 82 | 1013.7 |
| 20260508004541 | 63 | 73 | 2.6 | 4.3 | 0.00 | 0.06 | 0.00 | 83 | 1013.5 |
| 20260508003043 | 63 | 227 | 0.0 | 2.6 | 0.00 | 0.06 | 0.00 | 82 | 1013.7 |
| 20260508001548 | 64 | 280 | 0.9 | 3.5 | 0.00 | 0.06 | 0.00 | 82 | 1013.9 |
| 20260508000035 | 63 | 287 | 0.0 | 0.0 | 0.00 | 0.06 | 0.00 | 82 | 1014.0 |
| 20260507234536 | 63 | 287 | 0.0 | 0.0 | 0.00 | 0.06 | 0.00 | 82 | 1014.1 |
| 20260507233036 | 63 | 287 | 0.0 | 0.0 | 0.00 | 0.06 | 0.00 | 82 | 1014.1 |
| 20260507231532 | 63 | 286 | 0.0 | 0.0 | 0.00 | 0.06 | 0.00 | 81 | 1014.0 |
| 20260507230035 | 64 | 286 | 0.0 | 0.0 | 0.00 | 0.06 | 0.06 | 80 | 1014.1 |
| 20260507224533 | 64 | 286 | 0.9 | 3.5 | 0.00 | 0.06 | 0.06 | 80 | 1014.1 |
| 20260507223030 | 64 | 96 | 0.0 | 0.0 | 0.00 | 0.06 | 0.06 | 80 | 1014.0 |
| 20260507221530 | 64 | 96 | 0.0 | 0.0 | 0.00 | 0.06 | 0.06 | 79 | 1014.1 |
| 20260507220029 | 64 | 112 | 0.9 | 2.6 | 0.00 | 0.06 | 0.06 | 79 | 1014.0 |
| 20260507214527 | 64 | 202 | 0.0 | 0.0 | 0.00 | 0.06 | 0.06 | 78 | 1013.9 |
| 20260507213034 | 64 | 202 | 0.0 | 0.0 | 0.00 | 0.06 | 0.06 | 78 | 1013.7 |
| 20260507211537 | 64 | 202 | 1.7 | 4.3 | 0.00 | 0.06 | 0.06 | 79 | 1013.8 |
| 20260507210026 | 64 | 185 | 0.0 | 6.1 | 0.00 | 0.06 | 0.06 | 79 | 1013.8 |
| 20260507204525 | 64 | 167 | 0.0 | 0.0 | 0.00 | 0.06 | 0.06 | 79 | 1013.7 |
| 20260507203024 | 64 | 167 | 0.0 | 0.0 | 0.01 | 0.06 | 0.06 | 79 | 1013.5 |
| 20260507201534 | 64 | 167 | 0.0 | 3.5 | 0.01 | 0.06 | 0.06 | 78 | 1013.4 |
| 20260507200028 | 65 | 194 | 2.6 | 4.3 | 0.01 | 0.06 | 0.06 | 78 | 1013.3 |
| 20260507194522 | 65 | 186 | 0.0 | 2.6 | 0.01 | 0.06 | 0.06 | 77 | 1013.0 |
| 20260507193024 | 65 | 90 | 1.7 | 7.8 | 0.00 | 0.06 | 0.06 | 76 | 1013.0 |
| 20260507191524 | 67 | 342 | 1.7 | 5.2 | 0.00 | 0.06 | 0.06 | 75 | 1012.7 |
| 20260507190021 | 67 | 214 | 0.9 | 4.3 | 0.00 | 0.06 | 0.06 | 75 | 1012.5 |
| 20260507184520 | 67 | 205 | 3.5 | 8.7 | 0.00 | 0.06 | 0.06 | 75 | 1012.2 |
| 20260507183022 | 67 | 226 | 4.3 | 8.7 | 0.00 | 0.06 | 0.06 | 75 | 1012.1 |
| 20260507181518 | 67 | 255 | 3.5 | 6.1 | 0.00 | 0.06 | 0.06 | 75 | 1012.1 |
| 20260507180035 | 67 | 215 | 2.6 | 5.2 | 0.00 | 0.06 | 0.06 | 75 | 1012.2 |
| 20260507174521 | 68 | 303 | 1.7 | 7.0 | 0.00 | 0.06 | 0.06 | 75 | 1012.1 |
| 20260507173023 | 69 | 288 | 1.7 | 6.1 | 0.00 | 0.06 | 0.06 | 74 | 1012.1 |
| 20260507171514 | 69 | 23 | 4.3 | 7.0 | 0.00 | 0.06 | 0.06 | 75 | 1012.0 |
| 20260507170030 | 68 | 225 | 7.0 | 10.4 | 0.00 | 0.06 | 0.06 | 76 | 1012.1 |
| 20260507164613 | 67 | 212 | 4.3 | 7.0 | 0.00 | 0.06 | 0.06 | 78 | 1012.5 |
| 20260507163012 | 67 | 345 | 1.7 | 7.0 | 0.00 | 0.06 | 0.06 | 78 | 1012.7 |
| 20260507161511 | 67 | 231 | 0.0 | 0.0 | 0.01 | 0.06 | 0.06 | 80 | 1012.8 |
| 20260507160010 | 66 | 230 | 2.6 | 7.0 | 0.01 | 0.06 | 0.06 | 83 | 1013.0 |
| 20260507154510 | 65 | 257 | 1.7 | 4.3 | 0.01 | 0.06 | 0.06 | 85 | 1013.2 |
| 20260507153009 | 65 | 242 | 1.7 | 7.8 | 0.01 | 0.06 | 0.06 | 87 | 1013.5 |
| 20260507151515 | 65 | 213 | 2.6 | 6.1 | 0.00 | 0.05 | 0.05 | 86 | 1013.5 |
| 20260507150007 | 65 | 215 | 0.0 | 5.2 | 0.00 | 0.05 | 0.05 | 86 | 1013.7 |
| 20260507144507 | 65 | 227 | 3.5 | 7.8 | 0.00 | 0.05 | 0.05 | 87 | 1013.6 |
| 20260507143008 | 66 | 221 | 6.1 | 9.6 | 0.00 | 0.05 | 0.05 | 86 | 1013.7 |
| 20260507141610 | 66 | 252 | 6.1 | 8.7 | 0.01 | 0.05 | 0.05 | 87 | 1013.7 |
| 20260507140007 | 66 | 211 | 0.0 | 4.3 | 0.02 | 0.05 | 0.05 | 86 | 1013.8 |
| 20260507134508 | 66 | 229 | 0.9 | 3.5 | 0.02 | 0.05 | 0.05 | 86 | 1014.0 |
| 20260507133003 | 66 | 217 | 0.0 | 3.5 | 0.02 | 0.05 | 0.05 | 85 | 1014.1 |
| 20260507131503 | 67 | 217 | 4.3 | 7.8 | 0.01 | 0.04 | 0.04 | 84 | 1014.1 |
| 20260507130002 | 67 | 217 | 4.3 | 7.0 | 0.00 | 0.03 | 0.03 | 83 | 1014.0 |
| 20260507124602 | 67 | 227 | 2.6 | 4.3 | 0.00 | 0.03 | 0.03 | 84 | 1014.0 |
| 20260507123001 | 67 | 228 | 2.6 | 5.2 | 0.00 | 0.03 | 0.03 | 84 | 1014.0 |
| 20260507121601 | 67 | 230 | 3.5 | 7.0 | 0.00 | 0.03 | 0.03 | 82 | 1014.2 |
| 20260507120100 | 68 | 227 | 3.5 | 6.1 | 0.00 | 0.03 | 0.03 | 81 | 1014.0 |
| 20260507114601 | 68 | 224 | 2.6 | 6.1 | 0.00 | 0.03 | 0.03 | 79 | 1014.2 |
| 20260507113058 | 68 | 90 | 5.2 | 11.3 | 0.00 | 0.03 | 0.03 | 77 | 1013.9 |
| 20260507111557 | 68 | 77 | 4.3 | 8.7 | 0.00 | 0.03 | 0.03 | 77 | 1014.1 |
| 20260507110100 | 66 | 282 | 2.6 | 6.1 | 0.00 | 0.03 | 0.03 | 82 | 1014.1 |
| 20260507104601 | 65 | 285 | 3.5 | 7.0 | 0.00 | 0.03 | 0.03 | 83 | 1014.0 |
| 20260507103125 | 65 | 25 | 0.0 | 5.2 | 0.00 | 0.03 | 0.03 | 83 | 1014.0 |
| 20260507101552 | 65 | 239 | 1.7 | 6.1 | 0.00 | 0.03 | 0.03 | 83 | 1013.8 |
| 20260507100106 | 65 | 302 | 0.9 | 3.5 | 0.00 | 0.03 | 0.03 | 84 | 1013.6 |
| 20260507094552 | 65 | 308 | 1.7 | 4.3 | 0.00 | 0.03 | 0.03 | 84 | 1013.4 |
| 20260507093051 | 65 | 41 | 1.7 | 4.3 | 0.00 | 0.03 | 0.03 | 84 | 1013.5 |
| 20260507091550 | 65 | 324 | 0.9 | 3.5 | 0.00 | 0.03 | 0.03 | 83 | 1013.4 |
| 20260507090055 | 65 | 93 | 0.9 | 2.6 | 0.00 | 0.03 | 0.03 | 84 | 1013.5 |
| 20260507084558 | 64 | 108 | 0.9 | 1.7 | 0.00 | 0.03 | 0.03 | 84 | 1013.4 |
| 20260507083049 | 64 | 80 | 0.0 | 0.0 | 0.00 | 0.03 | 0.03 | 86 | 1013.4 |
| 20260507081546 | 63 | 225 | 0.0 | 1.7 | 0.00 | 0.03 | 0.03 | 87 | 1013.4 |
| 20260507080053 | 63 | 214 | 0.9 | 3.5 | 0.00 | 0.03 | 0.03 | 88 | 1013.2 |
| 20260507074546 | 62 | 233 | 0.0 | 3.5 | 0.00 | 0.03 | 0.03 | 87 | 1013.2 |
| 20260507073046 | 61 | 195 | 0.9 | 2.6 | 0.00 | 0.03 | 0.03 | 87 | 1012.9 |
| 20260507071547 | 61 | 191 | 0.9 | 4.3 | 0.00 | 0.03 | 0.03 | 87 | 1012.5 |
| 20260507070100 | 61 | 187 | 1.7 | 3.5 | 0.00 | 0.03 | 0.03 | 87 | 1012.5 |
| 20260507064550 | 61 | 173 | 1.7 | 3.5 | 0.00 | 0.03 | 0.03 | 87 | 1012.5 |
| 20260507063040 | 61 | 181 | 1.7 | 3.5 | 0.00 | 0.03 | 0.03 | 88 | 1012.4 |
| 20260507061540 | 61 | 156 | 1.7 | 2.6 | 0.00 | 0.03 | 0.03 | 89 | 1012.5 |
| 20260507060038 | 61 | 154 | 0.9 | 2.6 | 0.00 | 0.03 | 0.03 | 89 | 1012.4 |
| 20260507054556 | 62 | 194 | 1.7 | 3.5 | 0.00 | 0.03 | 0.03 | 88 | 1012.3 |
| 20260507053037 | 62 | 177 | 0.0 | 0.0 | 0.00 | 0.03 | 0.03 | 88 | 1012.1 |
| 20260507051539 | 62 | 239 | 0.0 | 1.7 | 0.00 | 0.03 | 0.03 | 88 | 1012.0 |
| 20260507050043 | 62 | 191 | 0.0 | 1.7 | 0.00 | 0.03 | 0.03 | 88 | 1012.1 |
| 20260507044539 | 62 | 152 | 0.9 | 2.6 | 0.00 | 0.03 | 0.03 | 88 | 1012.0 |
| 20260507043034 | 62 | 175 | 0.9 | 2.6 | 0.00 | 0.03 | 0.03 | 89 | 1012.1 |
| 20260507041532 | 62 | 204 | 0.0 | 1.7 | 0.00 | 0.03 | 0.03 | 89 | 1012.1 |
| 20260507040038 | 62 | 194 | 0.0 | 1.7 | 0.00 | 0.03 | 0.03 | 89 | 1012.0 |
| 20260507034532 | 61 | 196 | 1.7 | 3.5 | 0.00 | 0.03 | 0.03 | 89 | 1012.0 |